State College, PA

8:30 AM EDT on June 23, 2017 (GMT -0400)
University Park

Weather History for KUNV - October, 2012

Change the Weather History Date:

Monday, October 1, 2012

  Actual Average Record
Temperature  
Mean Temperature 54 °F -  
Max Temperature 66 °F 65 °F 86 °F (1927)
Min Temperature 41 °F 45 °F 30 °F (1947)
Degree Days  
Heating Degree Days 12    
Growing Degree Days 4 (Base 50)    
Moisture  
Dew Point 43 °F    
Average Humidity 76    
Maximum Humidity 100    
Minimum Humidity 37    
Precipitation  
Precipitation 0.00 in - - ()
Sea Level Pressure  
Sea Level Pressure 29.92 in    
Wind  
Wind Speed 2 mph (SSW)    
Max Wind Speed 7 mph    
Max Gust Speed -    
Visibility 10 miles    
Events      
Averages and records for this station are not official NWS values.
T = Trace of Precipitation, MM = Missing Value Source: NWS Daily Summary

Daily Weather History Graph

Daily Weather History Graph

Search for Another Location

Airport or City:

Trip Planner

Search our weather history database for the weather conditions in past years. The results will help you decide how hot, cold, wet, or windy it might be!

Date:

Astronomy

Oct. 01, 2012 Rise Set
Actual Time 7:08 AM EDT 6:52 PM EDT
Civil Twilight 6:41 AM EDT 7:19 PM EDT
Nautical Twilight 6:09 AM EDT 7:51 PM EDT
Astronomical Twilight 5:37 AM EDT 8:23 PM EDT
Moon 7:27 PM EDT (10/1) 8:36 AM EDT (10/1)
Length of Visible Light 12h 38m
Length of Day
11h 44m
Full, 98% of the Moon is Illuminated
Oct 1
Full
Oct 8
Last Quarter
Oct 15
New
Oct 21
First Quarter
Oct 29
Full

Hourly Weather History & Observations

Time (EDT) Temp. Windchill Dew Point Humidity Pressure Visibility Wind Dir Wind Speed Gust Speed Precip Events Conditions
12:35 AM 44.2 °F - 42.1 °F 92% 29.90 in 10.0 mi Calm Calm - N/A   Clear
12:55 AM 44.1 °F 41.5 °F 41.9 °F 92% 29.90 in 10.0 mi SW 4.6 mph - N/A   Scattered Clouds
1:15 AM 45.1 °F - 42.3 °F 90% 29.90 in 10.0 mi Calm Calm - N/A   Scattered Clouds
1:35 AM 43.5 °F 41.9 °F 41.4 °F 92% 29.90 in 10.0 mi South 3.5 mph - N/A   Clear
1:55 AM 43.2 °F 41.5 °F 41.5 °F 94% 29.90 in 10.0 mi SSW 3.5 mph - N/A   Clear
2:15 AM 43.0 °F - 41.4 °F 94% 29.90 in 10.0 mi Calm Calm - N/A   Clear
2:35 AM 43.2 °F 41.5 °F 41.2 °F 93% 29.89 in 10.0 mi SW 3.5 mph - N/A   Clear
2:55 AM 42.3 °F - 40.6 °F 94% 29.89 in 10.0 mi Calm Calm - N/A   Clear
3:15 AM 42.1 °F 40.2 °F 40.8 °F 95% 29.89 in 10.0 mi SSW 3.5 mph - N/A   Scattered Clouds
3:35 AM 42.8 °F - 41.2 °F 94% 29.89 in 10.0 mi Calm Calm - N/A   Scattered Clouds
3:55 AM 43.0 °F - 41.4 °F 94% 29.89 in 10.0 mi Calm Calm - N/A   Clear
4:15 AM 42.3 °F - 41.0 °F 95% 29.90 in 10.0 mi Calm Calm - N/A   Clear
4:35 AM 42.3 °F - 41.0 °F 95% 29.90 in 10.0 mi Calm Calm - N/A   Clear
4:55 AM 43.0 °F - 41.7 °F 95% 29.91 in 10.0 mi Calm Calm - N/A   Clear
5:15 AM 42.6 °F 39.9 °F 40.5 °F 92% 29.91 in 10.0 mi WSW 4.6 mph - N/A   Clear
5:35 AM 41.7 °F 38.8 °F 40.1 °F 94% 29.91 in 10.0 mi SW 4.6 mph - N/A   Clear
5:53 AM 42.8 °F 39.3 °F 41.0 °F 93% 29.91 in 10.0 mi WSW 5.8 mph - N/A   Scattered Clouds
6:53 AM 42.8 °F - 39.2 °F 87% 29.92 in 10.0 mi Calm Calm - N/A   Clear
7:53 AM 42.8 °F 39.3 °F 42.8 °F 100% 29.93 in 10.0 mi SW 5.8 mph - N/A   Clear
8:53 AM 48.2 °F - 44.6 °F 87% 29.96 in 10.0 mi Calm Calm - N/A   Clear
9:53 AM 53.6 °F - 46.4 °F 77% 29.96 in - Calm Calm - N/A   Partly Cloudy
10:34 AM 53.6 °F - 46.4 °F 77% 29.96 in 10.0 mi Calm Calm - N/A   Partly Cloudy
10:53 AM 57.2 °F - 46.4 °F 67% 29.96 in 10.0 mi Calm Calm - N/A   Scattered Clouds
11:53 AM 62.6 °F - 42.8 °F 48% 29.95 in 10.0 mi Calm Calm - N/A   Partly Cloudy
12:53 PM 64.4 °F - 37.4 °F 37% 29.94 in 10.0 mi Calm Calm - N/A   Scattered Clouds
1:53 PM 66.2 °F - 39.2 °F 37% 29.92 in 10.0 mi Calm Calm - N/A   Clear
3:53 PM 66.2 °F - 39.2 °F 37% 29.91 in 10.0 mi Calm Calm - N/A   Clear
4:53 PM 64.4 °F - 44.6 °F 49% 29.91 in 10.0 mi SSW 3.5 mph - N/A   Partly Cloudy
5:53 PM 62.6 °F - 42.8 °F 48% 29.91 in 10.0 mi South 6.9 mph - N/A   Scattered Clouds
6:53 PM 60.8 °F - 42.8 °F 52% 29.93 in 10.0 mi Calm Calm - N/A   Scattered Clouds
8:53 PM 60.8 °F - 44.6 °F 55% 29.94 in 10.0 mi SSW 3.5 mph - N/A   Scattered Clouds
9:15 PM 59.4 °F - 44.2 °F 57% 29.94 in 10.0 mi Calm Calm - N/A   Mostly Cloudy
9:35 PM 59.5 °F - 44.4 °F 57% 29.93 in 10.0 mi Calm Calm - N/A   Overcast
9:55 PM 59.2 °F - 45.5 °F 60% 29.93 in 10.0 mi Calm Calm - N/A   Overcast
10:15 PM 59.0 °F - 46.2 °F 63% 29.93 in 10.0 mi South 3.5 mph - N/A   Overcast
10:35 PM 59.2 °F - 46.4 °F 63% 29.93 in 10.0 mi Calm Calm - N/A   Overcast
11:15 PM 59.0 °F - 47.5 °F 66% 29.92 in 10.0 mi Calm Calm - N/A   Overcast
11:55 PM 58.5 °F - 48.4 °F 69% 29.94 in 10.0 mi Calm Calm - N/A   Overcast